Wind_Speed
53 49 47 40 41 40 39 38 36 41 41 42 43 42 40 41 39 39 38 36 36 36 35 34 33 31 31 31 30 30 30 31 31 31 31 31 31 31 32 33 35 34 32
50 49 50 47 47 43 40 38 36 35 35 40 44 43 43 43 44 43 40 38 38 37 37 37 36 35 34 34 33 33 32 33 33 33 34 34 34 34 33 31 33 37 36
48 47 51 50 49 49 40 36 35 35 34 35 35 39 45 48 45 46 44 42 39 38 38 38 38 38 37 37 37 36 36 36 36 36 38 37 37 38 38 35 36 36 38
56 50 52 52 51 48 45 43 44 40 41 33 36 37 39 48 49 48 47 45 42 41 38 41 41 40 40 40 40 40 39 39 39 39 40 40 39 38 42 42 40 37 35
44 45 53 53 50 49 48 47 45 45 46 46 44 47 46 39 43 49 48 46 46 45 42 42 43 43 43 42 42 42 42 41 42 41 42 43 40 41 43 43 42 43 40
49 53 56 58 53 51 48 46 44 44 44 47 49 51 51 53 49 52 56 51 44 47 46 45 46 46 45 46 46 46 46 45 42 43 46 47 44 44 47 48 47 46 44
56 48 48 49 52 47 45 48 47 45 46 47 50 53 53 54 60 56 45 44 44 45 57 55 51 47 49 49 49 48 48 48 47 45 46 47 46 47 48 50 50 51 44
63 58 51 42 45 44 49 49 47 48 49 48 50 52 53 53 55 55 56 52 51 52 52 43 47 51 54 57 52 53 52 49 47 48 53 52 50 49 49 52 50 43 36
75 66 55 56 45 46 50 49 51 53 53 49 51 52 50 51 55 58 54 60 53 53 49 54 54 60 62 57 55 56 52 51 57 64 61 56 55 55 53 43 36 32 29
79 80 72 54 54 51 49 53 52 54 51 47 47 52 53 50 54 55 55 59 52 52 50 52 55 57 61 61 61 59 59 50 56 58 53 52 53 45 34 35 27 27 27
69 74 71 60 54 60 65 54 52 51 53 51 49 52 54 53 53 54 50 49 55 60 54 50 51 53 54 57 63 64 51 41 39 41 36 30 24 26 28 28 26 25 27
56 64 63 63 57 58 57 54 53 53 50 50 49 49 49 49 47 53 56 52 48 46 50 50 52 58 65 69 59 44 43 43 40 38 31 29 29 28 30 32 29 25 30
43 54 53 57 57 53 53 53 52 52 52 53 49 48 46 44 45 49 53 51 50 49 51 50 52 53 48 52 53 41 40 38 42 37 33 35 32 29 31 34 39 36 37
42 52 46 46 51 57 55 50 51 52 50 51 52 55 52 48 51 52 52 51 48 50 50 49 50 49 50 45 37 33 39 38 41 41 38 36 35 35 38 42 42 44 43
40 43 44 45 47 47 47 46 49 53 54 54 51 53 54 53 55 57 55 54 58 59 58 48 48 49 41 38 36 36 36 36 37 43 42 42 39 38 44 42 40 40 39
36 38 41 42 45 47 47 47 47 51 54 57 55 50 49 53 49 52 61 52 51 52 55 49 46 47 47 46 44 44 42 44 41 43 46 47 49 41 40 41 42 44 40
29 33 37 37 33 32 35 39 41 46 48 49 51 50 51 47 41 43 51 56 56 56 55 53 47 49 51 54 49 50 48 47 46 49 49 48 52 48 44 43 44 44 41
29 28 28 29 36 38 40 41 42 40 37 42 45 45 47 51 45 44 46 47 50 54 58 51 51 51 51 52 50 53 55 53 50 47 47 50 50 51 46 45 46 45 41
32 33 34 36 45 42 40 37 41 35 33 35 40 45 47 47 48 50 52 50 50 49 46 45 47 48 49 54 59 63 57 56 54 53 53 51 56 52 45 47 46 46 42
30 34 31 34 35 38 39 41 44 44 40 39 38 37 37 33 35 38 36 39 38 39 41 48 51 53 53 44 44 45 49 50 53 55 55 52 49 49 48 48 46 43 41
18 20 22 25 28 29 25 31 32 30 34 36 36 39 39 39 41 40 39 40 42 41 40 44 42 41 39 41 46 45 49 47 45 45 44 43 43 42 40 39 38 38 39
27 30 30 32 33 35 35 36 38 38 40 41 42 45 46 46 47 48 48 47 49 49 47 47 50 49 47 45 41 44 43 42 41 39 39 38 37 38 39 38 38 39 39
31 33 35 37 38 40 42 43 45 46 47 48 49 51 53 54 55 57 58 58 58 58 58 57 55 55 55 53 52 53 51 44 41 46 42 42 43 44 43 43 41 43 41
35 37 40 42 44 47 49 50 52 55 57 59 60 61 62 63 65 66 67 68 68 68 68 68 66 65 65 63 61 58 56 56 52 54 54 47 51 49 44 44 46 46 44
44 47 49 51 53 55 57 59 61 62 64 66 67 69 71 72 74 75 77 77 77 78 78 78 77 76 75 73 69 68 65 63 62 61 62 60 59 54 51 47 48 53 50
52 55 57 60 63 65 67 68 69 71 72 73 74 77 79 80 81 82 83 84 84 85 87 87 87 86 84 82 82 78 73 72 69 68 66 66 66 63 63 57 56 53 45
Wind_Direction
249 251 252 251 252 249 252 252 254 255 255 255 252 253 256 256 254 254 256 255 257 259 259 259 259 262 265 267 269 272 273 276 279 282 283 287 291 299 302 304 306 307 309
251 250 251 250 248 249 249 248 251 259 255 259 259 256 255 255 255 255 255 256 257 256 258 260 261 261 263 266 268 270 271 273 275 277 280 283 288 295 300 304 306 307 306
251 251 249 248 250 252 242 248 248 248 261 258 266 265 259 255 257 256 256 256 258 261 260 260 260 261 263 266 267 269 271 271 274 275 276 278 281 288 293 299 302 304 302
254 251 253 251 251 249 249 247 245 243 244 252 265 262 264 262 260 258 258 258 258 258 263 265 264 263 263 265 267 268 269 271 272 274 277 279 281 285 289 295 300 303 302
239 254 254 251 252 250 252 252 246 249 253 252 254 260 266 265 258 259 256 256 258 260 258 261 264 264 265 265 266 267 267 267 269 272 276 276 278 281 286 290 297 299 298
256 257 253 252 251 248 246 245 249 255 256 264 261 264 264 255 254 260 258 257 260 257 256 261 263 264 266 267 266 267 266 267 269 272 275 278 280 287 288 291 291 301 296
245 233 238 245 241 245 249 251 255 258 262 267 269 268 267 263 258 256 258 253 256 266 260 261 259 263 266 266 266 267 268 268 266 269 272 275 279 279 281 288 292 298 297
240 247 232 240 245 252 254 258 258 261 265 268 267 265 269 265 258 258 257 254 259 266 273 252 262 264 271 265 262 264 263 265 266 266 270 272 275 278 281 287 293 296 290
243 244 246 249 248 254 257 255 261 263 266 268 268 267 268 265 257 257 258 258 264 262 265 266 264 263 267 264 257 258 258 261 263 267 267 270 275 277 288 288 287 285 282
241 248 252 256 250 250 259 262 261 265 267 269 270 268 269 266 258 257 259 254 262 260 261 263 263 263 259 258 257 261 262 271 275 273 276 279 277 282 279 282 277 282 284
245 249 256 254 258 257 260 260 267 268 268 273 272 270 268 265 262 257 255 259 259 263 265 265 264 264 263 261 268 271 270 262 266 276 276 273 271 278 281 273 276 278 282
245 247 251 250 253 252 257 261 263 265 270 271 276 275 268 264 262 256 255 261 260 260 267 270 273 270 267 268 272 270 259 255 255 263 265 268 275 279 282 277 266 280 283
246 243 246 246 248 248 253 258 260 264 268 272 270 278 272 261 254 254 251 249 259 263 265 269 275 273 271 273 270 250 244 244 249 253 258 267 272 274 272 269 272 273 277
243 239 242 243 247 252 254 257 261 263 268 268 274 275 270 269 266 258 260 257 262 264 265 273 279 272 275 260 241 236 234 246 247 258 263 266 273 275 274 274 279 274 270
235 239 244 246 249 252 255 261 262 264 266 270 274 273 268 267 265 264 263 264 266 260 270 271 275 272 259 241 241 238 242 248 260 258 259 262 268 277 278 281 281 280 275
242 246 249 254 260 261 263 265 266 265 265 271 273 269 270 270 272 268 264 263 265 261 258 262 266 269 260 250 246 248 252 253 257 256 260 266 264 273 278 278 280 277 272
249 250 251 254 259 258 261 264 264 266 265 266 263 262 268 270 264 268 254 259 264 263 259 263 260 261 263 261 257 254 255 257 259 265 263 267 264 265 278 274 275 276 268
240 246 238 243 246 256 253 259 269 268 264 258 264 266 267 262 265 260 263 269 270 272 261 255 257 259 257 253 256 259 260 260 261 263 268 263 264 263 271 269 269 268 272
235 244 249 250 256 257 260 258 262 268 269 269 266 264 266 261 254 252 260 267 266 261 259 259 258 263 264 259 258 257 259 258 259 264 266 267 259 266 268 265 266 267 261
259 261 256 258 258 262 261 259 258 258 258 257 257 252 251 256 253 254 257 258 260 261 267 263 264 267 264 266 261 262 261 263 264 268 266 266 259 258 258 258 264 266 266
266 256 260 264 268 265 265 269 270 270 269 269 274 275 273 273 275 272 271 270 268 271 275 273 279 279 279 276 261 261 263 264 259 262 260 254 250 249 251 257 260 265 264
264 265 264 265 266 269 269 268 269 269 268 267 269 271 271 271 270 269 270 269 269 269 268 268 271 274 274 268 268 270 276 284 265 250 248 251 250 255 256 258 262 261 261
264 266 266 266 268 270 272 273 273 273 272 271 271 270 271 272 272 272 271 271 270 269 269 268 268 269 269 269 264 265 263 260 262 273 259 257 255 254 255 255 256 256 255
277 277 276 275 276 276 276 277 276 276 276 277 276 275 274 273 273 272 271 271 271 271 270 269 268 266 267 265 264 262 260 260 253 256 256 261 264 261 251 253 248 255 249
285 284 283 282 281 280 280 280 279 278 277 276 275 275 274 272 271 271 270 269 269 268 268 269 269 268 269 268 263 258 258 255 256 254 253 256 258 260 255 255 252 251 255
287 285 284 283 282 280 279 278 278 277 275 275 275 274 273 272 271 270 269 269 269 267 266 266 266 266 267 266 265 262 255 253 249 253 254 252 254 257 253 252 257 258 261
Height
5807 5810 5812 5814 5815 5817 5818 5819 5819 5821 5822 5823 5824 5826 5829 5830 5831 5832 5832 5832 5833 5835 5835 5836 5836 5836 5836 5836 5836 5835 5834 5834 5833 5832 5830 5829 5828 5826 5825 5823 5822 5820 5817
5799 5801 5803 5805 5807 5809 5809 5810 5811 5813 5815 5815 5816 5818 5820 5821 5823 5824 5824 5825 5826 5827 5828 5828 5829 5830 5829 5830 5830 5829 5828 5827 5826 5825 5824 5823 5822 5821 5819 5818 5816 5814 5812
5790 5790 5793 5794 5797 5800 5802 5801 5803 5806 5807 5808 5809 5810 5810 5811 5814 5815 5817 5818 5819 5820 5820 5821 5821 5822 5822 5822 5822 5822 5822 5820 5819 5818 5817 5816 5815 5814 5812 5810 5809 5807 5806
5780 5782 5784 5785 5788 5791 5794 5795 5795 5797 5799 5798 5800 5800 5801 5802 5804 5807 5809 5810 5811 5811 5812 5813 5814 5814 5814 5813 5813 5814 5814 5813 5812 5811 5809 5809 5808 5807 5805 5803 5802 5800 5799
5767 5768 5772 5775 5779 5782 5784 5786 5788 5788 5789 5790 5790 5791 5793 5792 5793 5796 5799 5801 5802 5803 5803 5803 5805 5806 5806 5805 5805 5805 5804 5804 5803 5803 5801 5800 5800 5799 5798 5797 5796 5794 5793
5759 5758 5760 5763 5768 5771 5775 5776 5779 5780 5781 5782 5782 5782 5783 5785 5785 5785 5788 5790 5792 5792 5793 5794 5795 5797 5797 5796 5796 5796 5795 5794 5794 5794 5793 5793 5793 5792 5791 5789 5788 5786 5785
5742 5745 5749 5751 5756 5761 5766 5769 5770 5770 5771 5772 5771 5771 5771 5770 5773 5776 5778 5780 5782 5782 5784 5783 5785 5786 5787 5787 5787 5786 5786 5785 5784 5785 5784 5783 5783 5781 5781 5780 5779 5778 5777
5730 5732 5736 5740 5743 5748 5753 5757 5758 5760 5761 5761 5761 5759 5759 5761 5761 5767 5769 5769 5769 5770 5770 5769 5772 5775 5775 5776 5776 5776 5775 5775 5775 5774 5775 5773 5772 5771 5772 5771 5770 5768 5768
5717 5720 5725 5727 5734 5738 5743 5745 5747 5749 5750 5751 5751 5750 5749 5752 5751 5753 5757 5758 5759 5759 5760 5760 5761 5762 5762 5763 5763 5763 5764 5763 5763 5763 5762 5763 5762 5761 5763 5762 5761 5761 5760
5707 5709 5714 5721 5724 5729 5733 5737 5737 5738 5739 5740 5739 5739 5738 5738 5738 5740 5743 5745 5747 5746 5749 5748 5748 5748 5749 5749 5750 5751 5753 5752 5752 5751 5753 5753 5752 5752 5752 5753 5752 5753 5752
5696 5700 5703 5712 5715 5719 5723 5725 5726 5727 5727 5728 5728 5726 5725 5724 5725 5727 5732 5734 5735 5737 5736 5736 5736 5737 5737 5739 5740 5741 5738 5742 5742 5743 5743 5745 5745 5745 5744 5743 5744 5745 5744
5686 5691 5697 5701 5706 5710 5712 5713 5714 5716 5716 5716 5716 5714 5713 5713 5715 5716 5720 5724 5723 5725 5725 5724 5724 5724 5725 5725 5727 5728 5731 5731 5732 5735 5735 5737 5738 5737 5737 5737 5737 5737 5738
5677 5682 5686 5690 5695 5698 5701 5702 5703 5704 5703 5704 5704 5705 5704 5705 5705 5706 5707 5712 5711 5712 5712 5713 5713 5712 5711 5711 5714 5715 5718 5720 5723 5725 5726 5727 5728 5729 5729 5729 5729 5729 5729
5668 5672 5676 5678 5682 5686 5689 5690 5691 5692 5692 5692 5692 5692 5693 5694 5695 5695 5696 5698 5698 5699 5700 5702 5700 5699 5698 5698 5701 5702 5706 5710 5712 5715 5716 5717 5718 5720 5720 5720 5718 5720 5719
5656 5661 5665 5668 5670 5673 5676 5678 5679 5680 5680 5680 5681 5680 5680 5681 5682 5683 5684 5684 5686 5686 5687 5689 5688 5687 5687 5689 5692 5693 5695 5699 5702 5703 5705 5707 5708 5708 5708 5708 5708 5709 5709
5649 5652 5655 5658 5661 5663 5665 5667 5667 5667 5667 5667 5667 5668 5667 5668 5669 5670 5670 5672 5671 5671 5673 5677 5677 5677 5678 5680 5681 5681 5684 5687 5690 5693 5694 5696 5696 5697 5697 5697 5698 5698 5699
5642 5644 5647 5650 5652 5653 5654 5654 5654 5654 5653 5653 5654 5657 5657 5656 5657 5658 5656 5657 5658 5658 5659 5662 5664 5665 5666 5668 5668 5670 5671 5674 5676 5680 5681 5682 5683 5686 5687 5687 5687 5687 5688
5635 5637 5639 5640 5641 5642 5643 5643 5643 5642 5641 5642 5643 5643 5644 5644 5644 5644 5644 5644 5645 5646 5645 5646 5649 5651 5652 5653 5655 5656 5658 5661 5663 5665 5668 5670 5671 5673 5675 5675 5675 5676 5678
5628 5630 5631 5632 5632 5632 5632 5632 5633 5632 5631 5630 5630 5630 5631 5631 5632 5632 5632 5632 5632 5632 5632 5633 5635 5636 5637 5638 5639 5641 5644 5647 5649 5652 5654 5656 5657 5659 5661 5662 5663 5665 5667
5622 5622 5623 5624 5623 5623 5623 5623 5622 5621 5620 5620 5619 5619 5619 5619 5619 5619 5619 5620 5620 5620 5620 5620 5622 5623 5625 5626 5625 5628 5630 5632 5634 5636 5639 5641 5643 5645 5647 5649 5651 5653 5655
5616 5616 5615 5615 5615 5614 5613 5613 5612 5610 5610 5609 5608 5608 5608 5607 5607 5607 5608 5608 5609 5609 5609 5610 5611 5612 5614 5615 5617 5617 5618 5619 5621 5624 5626 5628 5630 5633 5635 5637 5639 5642 5644
5611 5610 5608 5607 5606 5605 5604 5603 5602 5601 5600 5599 5597 5597 5596 5595 5594 5594 5593 5594 5594 5594 5596 5597 5598 5599 5602 5604 5604 5606 5607 5610 5611 5613 5614 5617 5619 5622 5625 5627 5629 5631 5634
5603 5602 5600 5598 5597 5594 5592 5590 5589 5588 5587 5585 5584 5582 5580 5578 5578 5577 5577 5577 5578 5578 5578 5579 5582 5585 5587 5589 5590 5592 5594 5596 5599 5602 5602 5605 5607 5609 5611 5615 5619 5622 5624
5594 5592 5590 5587 5585 5582 5580 5578 5576 5574 5572 5569 5567 5565 5563 5562 5559 5558 5558 5557 5557 5558 5558 5559 5561 5565 5568 5571 5574 5576 5579 5582 5584 5588 5588 5592 5595 5600 5600 5602 5606 5610 5612
5582 5579 5575 5572 5569 5566 5562 5559 5557 5555 5552 5549 5547 5544 5543 5541 5539 5537 5535 5536 5536 5536 5536 5537 5539 5542 5545 5548 5552 5555 5559 5563 5568 5573 5575 5579 5581 5584 5588 5590 5593 5596 5600
5565 5562 5558 5554 5550 5547 5543 5539 5536 5532 5529 5525 5523 5520 5517 5514 5512 5511 5510 5510 5511 5510 5508 5510 5513 5517 5520 5525 5526 5530 5537 5541 5545 5550 5559 5563 5566 5570 5572 5576 5580 5583 5586